Home   Weather   Ahaus   Past weeks

Flag for Germany Past Weather in Ahaus, North Rhine-Westphalia, Germany — Yesterday and Last 2 Weeks

Now
69 °F

Scattered clouds.


Feels Like: 69 °F
Forecast: 56 / 70 °F
Wind: 6 mph from Southwest

Location: Twenthe

Current Time: Sep 27, 2016 at 7:22:05 PM

Latest Report: Sep 27, 2016 at 5:00 PM


Visibility: 16 mi

Pressure: 30.27 "Hg

Humidity: 50%

Dew Point: 50 °F

Location of AhausLocation

Past Weather in Ahaus — Graph

°F

Ahaus Temperature Yesterday

Maximum temperature yesterday: 69 °F (at 3:00 PM)
Minimum temperature yesterday: 46 °F (at 7:00 AM)
Average temperature yesterday: 57 °F

High & Low Weather Summary for the Past Weeks

 TemperatureHumidityPressure
High89 °F (Sep 13, 5:00 PM)100% (Sep 13, 1:00 AM)30.31 "Hg (Sep 13, 1:00 AM)
Low42 °F (Sep 20, 6:00 AM)38% (Sep 25, 4:00 PM)29.82 "Hg (Sep 15, 5:00 PM)
Average62 °F76%30.07 "Hg
* Reported Sep 12 5:00 PM — Sep 27 5:00 PM, Ahaus, Weather by CustomWeather, © 2016

Note: Actual official high and low records may vary slightly from our data, if they occured in-between our weather recording intervals... More about our weather records

Advertising

Ahaus Weather History for the Previous 24 Hours

Scroll right to see more
 ConditionsComfort  
Time TempWeatherWind HumidityBarometerVisibility
5:00 PM
Tue, Sep 27
69 °FScattered clouds.6 mph50%30.27 "Hg16 mi
4:00 PM70 °FOvercast.6 mph50%30.28 "Hg17 mi
3:00 PM70 °FPassing clouds.3 mph52%30.29 "Hg16 mi
2:00 PM69 °FPassing clouds.3 mph51%30.30 "Hg7 mi
1:00 PM68 °FSunny.3 mph54%30.31 "Hg18 mi
12:00 PM65 °FSunny.2 mph66%30.31 "Hg14 mi
11:00 AM63 °FSunny.1 mph68%30.30 "Hg16 mi
10:00 AM58 °FSunny.1 mph84%30.29 "Hg9 mi
9:00 AM48 °FSunny.No wind99%30.30 "Hg7 mi
8:00 AM43 °FSunny.No wind100%30.30 "Hg0 mi
7:00 AM43 °FClear.1 mph100%30.27 "Hg0 mi
6:00 AM44 °FPassing clouds.1 mph100%30.27 "Hg1 mi
5:00 AM45 °FPassing clouds.1 mph100%30.27 "Hg3 mi
4:00 AM48 °FFog.1 mph99%30.26 "Hg1 mi
2:00 AM49 °FOvercast.No wind99%30.24 "Hg9 mi
1:00 AM51 °FOvercast.No wind98%30.25 "Hg16 mi
12:00 AM50 °FOvercast.1 mph98%30.24 "Hg19 mi
11:00 PM
Mon, Sep 26
49 °FOvercast.No wind100%30.25 "Hg4 mi
10:00 PM51 °FOvercast.No wind100%30.24 "Hg7 mi
9:00 PM53 °FOvercast.No wind96%30.25 "Hg10 mi
8:00 PM56 °FOvercast.1 mph91%30.24 "Hg14 mi
7:00 PM60 °FOvercast.1 mph80%30.23 "Hg22 mi
Weather by CustomWeather, © 2016

See weather overviewHow to use our weather pages